#timestamp,LO_Frequency,Hit,StdDev 
1703221215.4,286047000.7,N
1703221235.2,286046998.4,N
1703221255.0,286046998.6,N
1703221255.9,286046998.6,N
1703221275.8,286047000.1,N
1703221295.6,286047000.2,N
1703221315.4,286046999.8,N
1703221335.3,286047000.3,N
1703221355.1,286047002.8,N
1703221375.9,286047000.3,N
1703221395.7,286047000.1,N
1703221415.5,286047001.0,N
1703221435.4,286047001.0,N
1703221455.2,286047001.0,N
1703221475.0,286047000.1,N
1703221475.9,286047000.1,N
1703221495.8,286046999.9,N
1703221515.6,286046999.7,N
1703221535.5,286046999.8,N
1703221555.3,286047000.4,N
1703221575.1,286046999.7,N
1703221595.9,286047002.8,N
1703221615.7,286047000.0,N
1703221635.5,286047002.8,N
1703221655.4,286047002.7,N
1703221675.2,286047002.5,N
1703221695.1,286047001.8,N
1703221696.0,286047001.8,N
1703221715.8,286047002.6,N
1703221735.6,286047002.8,N
1703221755.5,286047000.3,N
1703221775.3,286046999.8,N
1703221795.1,286047000.4,N
1703221815.9,286047002.4,N
1703221835.7,286047002.3,N
1703221855.6,286047001.5,N
1703221875.4,286047001.9,N
1703221895.2,286047001.6,N
1703221915.1,286047002.3,N
1703221916.0,286047002.3,N
1703221935.8,286047002.8,N
1703221955.6,286047002.3,N
1703221975.5,286046999.8,N
1703221995.3,286047002.5,N
1703222015.2,286047002.8,N
1703222035.9,286047002.7,N
1703222055.7,286047002.0,N
1703222075.6,286047001.5,N
1703222095.4,286047002.4,N
1703222115.2,286047001.6,N
1703222135.1,286047001.5,N
1703222136.0,286047001.5,N
1703222155.8,286047004.3,Y
1703222175.7,286047001.0,P
1703222195.5,286047000.6,N
1703222215.3,286047000.9,N
1703222235.2,286047000.0,N
1703222255.0,286047000.5,N
1703222255.9,286047000.5,N
1703222275.8,286047000.0,N
1703222295.6,286047002.6,Y
1703222315.4,286046999.9,P
1703222335.3,286047001.0,N
1703222355.1,286047000.5,N
1703222375.8,286046999.7,N
1703222395.7,286047001.0,N
1703222415.5,286047000.6,N
1703222435.4,286047001.0,N
1703222455.2,286047000.8,N
1703222475.0,286046999.9,N
1703222475.9,286046999.9,N
1703222495.8,286047000.9,N
1703222515.6,286047002.6,Y
1703222535.4,286047000.5,P
1703222555.3,286046999.9,P
1703222575.1,286047000.0,N
1703222595.9,286047002.4,Y
1703222615.7,286046999.8,P
1703222635.5,286047000.0,N
1703222655.4,286047001.1,P
1703222675.2,286047001.1,N
1703222695.0,286047000.4,N
1703222695.9,286047000.4,N
1703222715.8,286047000.0,N
1703222735.6,286047000.0,N
1703222755.5,286047002.8,Y
1703222775.3,286047002.3,P
1703222795.1,286046999.8,N
1703222815.9,286046999.9,N
1703222835.7,286047000.1,N
1703222855.5,286047000.3,N
1703222875.4,286047000.1,N
1703222895.2,286047000.0,N
1703222915.0,286047000.2,N
1703222916.0,286047000.2,N
1703222935.8,286046999.9,N
1703222955.6,286047000.0,N
1703222975.5,286047000.6,N
1703222995.3,286047000.3,N
1703223015.1,286047000.3,N
1703223035.9,286047000.2,N
1703223055.7,286047000.6,N
1703223075.6,286046999.7,N
1703223095.4,286047002.6,Y
1703223115.2,286047002.7,P
1703223135.1,286047002.8,N
1703223136.0,286047002.8,N
1703223155.8,286047002.6,N
1703223175.6,286047002.8,N
1703223195.5,286047000.1,N
1703223215.3,286046999.8,N
1703223235.2,286047002.2,N
1703223255.9,286047002.8,N
1703223275.7,286047002.4,N
1703223295.6,286047002.4,N
1703223315.4,286047002.7,N
1703223335.3,286047002.0,N
1703223355.1,286047002.6,N
1703223356.0,286047002.6,N
1703223375.8,286047002.7,N
1703223395.7,286047002.8,N
1703223415.5,286047002.1,N
1703223435.3,286047001.7,N
1703223455.2,286047001.8,N
1703223475.0,286047002.5,N
1703223475.9,286047002.5,N
1703223495.8,286047002.5,N
1703223515.6,286047002.2,N
1703223535.4,286047002.1,N
1703223555.3,286047001.8,N
1703223575.1,286047001.4,N
1703223595.8,286047003.9,Y
1703223615.7,286047000.9,P
1703223635.5,286047001.1,N
1703223655.4,286047002.2,P
1703223675.2,286047002.5,Y
1703223695.0,286047000.9,P
1703223695.9,286047000.9,N
1703223715.8,286047000.8,N
1703223735.6,286047001.2,Y
1703223755.4,286046999.6,P
1703223775.3,286046999.1,N
1703223795.1,286046999.6,N
1703223815.9,286046998.7,N
1703223835.7,286046996.5,Y
1703223855.5,286046999.5,P
1703223875.4,286046996.6,P
1703223895.2,286046997.2,N
1703223915.0,286046998.6,N
1703223915.9,286046998.6,N
1703223935.8,286046999.3,N
1703223955.6,286046998.8,N
1703223975.5,286046998.1,N
1703223995.3,286047001.2,N
1703224015.1,286047000.8,N
1703224035.9,286047000.4,N
1703224055.7,286047000.5,N
1703224075.5,286046998.5,N
1703224095.4,286047000.5,N
1703224115.2,286046998.5,N
1703224135.1,286046998.6,N
1703224136.0,286046998.6,N
1703224155.8,286046998.7,N
1703224175.6,286046998.9,N
1703224195.5,286046998.9,N
1703224215.3,286046998.7,N
1703224235.2,286046998.7,N
1703224255.9,286046998.7,N
1703224275.7,286046998.9,N
1703224295.6,286047001.1,N
1703224315.4,286046998.5,N
1703224335.2,286046998.5,N
1703224355.1,286046998.6,N
1703224356.0,286046998.6,N
1703224375.8,286046998.6,N
1703224395.7,286047000.8,N
1703224415.5,286046998.3,N
1703224435.3,286047000.9,N
1703224455.2,286047000.6,N
1703224475.0,286046999.9,N
1703224475.9,286046999.9,N
1703224495.8,286047000.4,N
1703224515.6,286047000.9,N
1703224535.4,286047000.7,N
1703224555.3,286047000.8,N
1703224575.1,286047001.0,N
1703224595.8,286047000.9,N
1703224615.7,286046998.1,N
1703224635.5,286047000.9,N
1703224655.4,286047000.6,N
1703224675.2,286047000.3,N
1703224695.0,286046999.9,N
1703224695.9,286046999.9,N
1703224715.8,286047000.7,N
1703224735.6,286047002.8,N
1703224755.4,286047002.2,N
1703224775.3,286046999.7,N
1703224795.1,286047002.7,N
